Juneau, WI

8:41 AM CDT on July 22, 2017 (GMT -0500)
Dodge County

Weather History for KUNU - January, 2015

Change the Weather History Date:

Saturday, January 10, 2015

  Actual Average Record
Temperature  
Mean Temperature 5 °F -  
Max Temperature 19 °F 24 °F 45 °F (1975)
Min Temperature -9 °F 12 °F -26 °F (1982)
Degree Days  
Heating Degree Days 60    
Moisture  
Dew Point -2 °F    
Average Humidity 74    
Maximum Humidity 84    
Minimum Humidity 62    
Precipitation  
Precipitation 0.00 in - - ()
Sea Level Pressure  
Sea Level Pressure 30.24 in    
Wind  
Wind Speed 10 mph (SSW)    
Max Wind Speed 18 mph    
Max Gust Speed 21 mph    
Visibility 10 miles    
Events      
Averages and records for this station are not official NWS values.
T = Trace of Precipitation, MM = Missing Value Source: NWS Daily Summary

Daily Weather History Graph

Daily Weather History Graph

Search for Another Location

Airport or City:

Trip Planner

Search our weather history database for the weather conditions in past years. The results will help you decide how hot, cold, wet, or windy it might be!

Date:

Astronomy

Jan. 10, 2015 Rise Set
Actual Time 7:26 AM CST 4:38 PM CST
Civil Twilight 6:54 AM CST 5:10 PM CST
Nautical Twilight 6:18 AM CST 5:45 PM CST
Astronomical Twilight 5:44 AM CST 6:20 PM CST
Moon 10:16 PM CST (1/10) 10:03 AM CST (1/10)
Length of Visible Light 10h 15m
Length of Day
9h 11m
Waning Gibbous, 74% of the Moon is Illuminated
Jan 10
Waning Gibbous
Jan 13
Last Quarter
Jan 20
New
Jan 26
First Quarter
Feb 3
Full

Hourly Weather History & Observations

Time (CST) Temp. Windchill Dew Point Humidity Pressure Visibility Wind Dir Wind Speed Gust Speed Precip Events Conditions
12:15 AM -4.9 °F -21.3 °F -10.3 °F 78% 30.32 in 10.0 mi SW 9.2 mph - N/A   Clear
12:35 AM -4.9 °F -22.3 °F -10.3 °F 78% 30.32 in 10.0 mi SW 10.4 mph - N/A   Clear
12:55 AM -6.2 °F -21.7 °F -11.2 °F 79% 30.32 in 10.0 mi WSW 8.1 mph - N/A   Clear
1:15 AM -5.8 °F -19.9 °F -10.5 °F 80% 30.32 in 10.0 mi SW 6.9 mph - N/A   Clear
1:35 AM -7.8 °F -24.8 °F -12.1 °F 81% 30.31 in 10.0 mi SSW 9.2 mph - N/A   Clear
1:55 AM -7.8 °F -22.3 °F -11.9 °F 82% 30.32 in 10.0 mi SSW 6.9 mph - N/A   Clear
2:15 AM -7.8 °F -22.3 °F -11.6 °F 84% 30.31 in 10.0 mi SSW 6.9 mph - N/A   Clear
2:35 AM -7.6 °F -23.4 °F -11.4 °F 84% 30.32 in 10.0 mi SSW 8.1 mph - N/A   Clear
2:55 AM -6.7 °F -22.3 °F -11.2 °F 81% 30.32 in 10.0 mi SW 8.1 mph - N/A   Clear
3:15 AM -6.2 °F -18.9 °F -10.7 °F 81% 30.31 in 10.0 mi SSW 5.8 mph - N/A   Clear
3:35 AM -6.9 °F -21.2 °F -11.2 °F 81% 30.30 in 10.0 mi South 6.9 mph - N/A   Clear
3:55 AM -8.1 °F -21.2 °F -12.3 °F 82% 30.29 in 10.0 mi SSW 5.8 mph - N/A   Clear
4:15 AM -8.7 °F -23.4 °F -13.0 °F 81% 30.29 in 10.0 mi SSW 6.9 mph - N/A   Clear
4:35 AM -9.8 °F -26.1 °F -13.9 °F 82% 30.29 in 10.0 mi SSW 8.1 mph - N/A   Clear
4:55 AM -9.8 °F -24.7 °F -13.9 °F 82% 30.29 in 10.0 mi SSW 6.9 mph - N/A   Clear
5:15 AM -9.2 °F -25.4 °F -13.2 °F 83% 30.29 in 10.0 mi SSW 8.1 mph - N/A   Clear
5:35 AM -9.4 °F -26.8 °F -13.7 °F 81% 30.29 in 10.0 mi SSW 9.2 mph - N/A   Clear
5:55 AM -9.0 °F -25.2 °F -13.2 °F 82% 30.28 in 10.0 mi SSW 8.1 mph - N/A   Clear
6:15 AM -9.2 °F -27.7 °F -13.4 °F 82% 30.28 in 10.0 mi SSW 10.4 mph - N/A   Clear
6:35 AM -8.5 °F -26.8 °F -13.0 °F 81% 30.29 in 10.0 mi SSW 10.4 mph - N/A   Clear
6:55 AM -7.6 °F -25.7 °F -11.9 °F 81% 30.29 in 10.0 mi SSW 10.4 mph - N/A   Clear
7:15 AM -7.6 °F -25.7 °F -11.7 °F 82% 30.29 in 10.0 mi SSW 10.4 mph - N/A   Clear
7:35 AM -7.1 °F -23.9 °F -11.2 °F 82% 30.29 in 10.0 mi SSW 9.2 mph - N/A   Clear
7:55 AM -5.8 °F -23.4 °F -10.3 °F 81% 30.30 in 10.0 mi SSW 10.4 mph - N/A   Clear
8:15 AM -4.9 °F -21.3 °F -9.4 °F 81% 30.29 in 10.0 mi SSW 9.2 mph - N/A   Clear
8:35 AM -4.2 °F -21.4 °F -8.5 °F 82% 30.29 in 10.0 mi SSW 10.4 mph - N/A   Clear
8:55 AM -3.5 °F -20.5 °F -7.8 °F 82% 30.29 in 10.0 mi SSW 10.4 mph - N/A   Clear
9:15 AM -2.7 °F -19.6 °F -7.6 °F 80% 30.30 in 10.0 mi SSW 10.4 mph - N/A   Clear
9:35 AM -1.8 °F -18.5 °F -6.5 °F 80% 30.30 in 10.0 mi SSW 10.4 mph - N/A   Clear
9:55 AM -0.8 °F -18.0 °F -5.8 °F 79% 30.30 in 10.0 mi SSW 11.5 mph - N/A   Clear
10:15 AM 0.1 °F -17.7 °F -5.6 °F 77% 30.30 in 10.0 mi SSW 12.7 mph - N/A   Clear
10:35 AM 1.8 °F -12.0 °F -4.9 °F 74% 30.29 in 10.0 mi SSW 8.1 mph - N/A   Clear
10:55 AM 4.8 °F -14.9 °F -4.0 °F 67% 30.29 in 10.0 mi SSW 18.4 mph - N/A   Clear
11:15 AM 6.6 °F -11.5 °F -2.9 °F 65% 30.29 in 10.0 mi SSW 16.1 mph 20.7 mph N/A   Clear
11:35 AM 7.5 °F -10.3 °F -2.2 °F 65% 30.27 in 10.0 mi SSW 16.1 mph - N/A   Clear
11:55 AM 7.7 °F -8.9 °F -1.8 °F 65% 30.26 in 10.0 mi SSW 13.8 mph - N/A   Clear
12:15 PM 9.0 °F -8.5 °F -1.1 °F 64% 30.26 in 10.0 mi SSW 16.1 mph - N/A   Clear
12:35 PM 9.9 °F -5.5 °F -0.8 °F 62% 30.24 in 10.0 mi SSW 12.7 mph - N/A   Clear
12:55 PM 10.0 °F -5.9 °F -0.0 °F 64% 30.23 in 10.0 mi SSW 13.8 mph - N/A   Clear
1:15 PM 10.2 °F -4.3 °F 0.7 °F 65% 30.22 in 10.0 mi SSW 11.5 mph - N/A   Mostly Cloudy
1:35 PM 10.4 °F -5.4 °F 0.7 °F 65% 30.22 in 10.0 mi SSW 13.8 mph - N/A   Overcast
1:55 PM 10.9 °F -2.6 °F 1.6 °F 66% 30.21 in 10.0 mi SSW 10.4 mph - N/A   Overcast
2:15 PM 11.8 °F -3.0 °F 1.9 °F 65% 30.20 in 10.0 mi SSW 12.7 mph - N/A   Overcast
2:35 PM 12.2 °F -1.8 °F 2.1 °F 64% 30.19 in 10.0 mi South 11.5 mph - N/A   Overcast
2:55 PM 12.7 °F -1.8 °F 2.3 °F 63% 30.17 in 10.0 mi South 12.7 mph - N/A   Overcast
3:15 PM 12.7 °F -1.1 °F 3.0 °F 65% 30.16 in 10.0 mi SSE 11.5 mph - N/A   Overcast
3:35 PM 12.9 °F -1.6 °F 3.0 °F 65% 30.16 in 10.0 mi South 12.7 mph 17.3 mph N/A   Overcast
3:55 PM 13.5 °F -1.5 °F 3.9 °F 66% 30.15 in 10.0 mi South 13.8 mph - N/A   Overcast
4:15 PM 14.4 °F -0.4 °F 3.6 °F 62% 30.15 in 10.0 mi South 13.8 mph - N/A   Overcast
4:35 PM 14.0 °F -2.0 °F 4.6 °F 66% 30.15 in 10.0 mi South 16.1 mph - N/A   Overcast
4:55 PM 14.5 °F -0.2 °F 4.8 °F 65% 30.17 in 10.0 mi South 13.8 mph - N/A   Overcast
5:15 PM 14.7 °F 0.7 °F 5.5 °F 67% 30.18 in 10.0 mi South 12.7 mph - N/A   Overcast
5:35 PM 14.9 °F 0.3 °F 5.9 °F 68% 30.19 in 10.0 mi South 13.8 mph - N/A   Overcast
5:55 PM 14.9 °F 1.6 °F 6.4 °F 69% 30.19 in 10.0 mi South 11.5 mph - N/A   Overcast
6:15 PM 15.3 °F 2.8 °F 7.0 °F 70% 30.20 in 10.0 mi South 10.4 mph - N/A   Overcast
6:35 PM 15.4 °F 3.0 °F 6.8 °F 69% 30.21 in 10.0 mi South 10.4 mph - N/A   Overcast
6:55 PM 15.8 °F 3.4 °F 7.5 °F 70% 30.20 in 10.0 mi South 10.4 mph - N/A   Overcast
7:15 PM 15.8 °F 3.4 °F 7.7 °F 70% 30.20 in 10.0 mi SSE 10.4 mph - N/A   Overcast
7:35 PM 15.8 °F 3.4 °F 8.4 °F 73% 30.20 in 10.0 mi SSE 10.4 mph - N/A   Overcast
7:55 PM 16.2 °F 3.9 °F 8.6 °F 72% 30.20 in 10.0 mi SSE 10.4 mph - N/A   Overcast
8:15 PM 16.5 °F 4.3 °F 9.1 °F 73% 30.20 in 10.0 mi South 10.4 mph - N/A   Overcast
8:35 PM 16.7 °F 4.5 °F 9.3 °F 73% 30.20 in 10.0 mi South 10.4 mph - N/A   Overcast
8:55 PM 17.1 °F 5.8 °F 9.9 °F 73% 30.20 in 10.0 mi South 9.2 mph - N/A   Overcast
9:15 PM 17.4 °F 6.2 °F 10.2 °F 73% 30.20 in 10.0 mi South 9.2 mph - N/A   Overcast
9:35 PM 17.6 °F 6.4 °F 10.4 °F 73% 30.19 in 10.0 mi South 9.2 mph - N/A   Overcast
9:55 PM 17.6 °F 6.4 °F 10.9 °F 75% 30.19 in 10.0 mi South 9.2 mph - N/A   Overcast
10:15 PM 18.1 °F 7.1 °F 11.3 °F 75% 30.19 in 10.0 mi South 9.2 mph - N/A   Overcast
10:35 PM 18.5 °F 8.4 °F 11.5 °F 74% 30.19 in 10.0 mi South 8.1 mph - N/A   Overcast
10:55 PM 18.9 °F 9.8 °F 11.8 °F 74% 30.18 in 10.0 mi South 6.9 mph - N/A   Overcast
11:15 PM 19.2 °F 9.3 °F 12.0 °F 74% 30.17 in 10.0 mi South 8.1 mph - N/A   Overcast
11:35 PM 19.4 °F 10.4 °F 12.2 °F 74% 30.17 in 10.0 mi South 6.9 mph - N/A   Overcast
11:55 PM 19.9 °F 12.1 °F 12.2 °F 72% 30.17 in 10.0 mi South 5.8 mph - N/A   Overcast